Regional Weather Roundup
Issued by NWS Little Rock, AR

Home | Current Version | Previous Version | Text Only | Print | Product List | Glossary Off
Versions: 1 2 3 4 5 6 7 8 9 10 11 12 13 14 15 16 17 18 19 20 21 22 23 24 25 26 27 28 29 30 31 32

000
ASUS44 KLZK 110105
RWRLZK

WEATHER ROUNDUP FOR ARKANSAS
NATIONAL WEATHER SERVICE LITTLE ROCK AR
700 PM CST SAT DEC 10 2016

NOTE: "FAIR" INDICATES FEW OR NO CLOUDS BELOW 12,000 FEET WITH NO
SIGNIFICANT WEATHER AND/OR OBSTRUCTIONS TO VISIBILITY.

ARZ001-003-010-029-110200-
NORTHWEST ARKANSAS

CITY           SKY/WX    TMP DP  RH WIND       PRES   REMARKS
FAYETTEVILLE   CLOUDY    41  16  36 S10G21    30.15F
FORT SMITH     CLOUDY    46  16  30 SE9G17    30.22F
HARRISON       MOCLDY    35  19  52 SE15      30.20F WCI  25
BENTONVILLE    CLOUDY    39  16  38 S10       30.14F
ROGERS         CLOUDY    40  17  39 SE14      30.13F
SILOAM SPGS    CLOUDY    41  18  38 SE13G23   30.12F
HIGHFILL       CLOUDY    42  17  36 S17       30.13F
SPRINGDALE     CLOUDY    39  16  38 SE9       30.16F
$$

ARZ004-005-016-110200-
NORTH CENTRAL ARKANSAS

CITY           SKY/WX    TMP DP  RH WIND       PRES   REMARKS
BATESVILLE     CLOUDY    36  21  55 E8        30.34F
FLIPPIN        CLOUDY    37  18  44 SE6       30.25F
MTN HOME       CLOUDY    35  19  52 SE9       30.26F WCI  28
$$

ARZ040-041-110200-
WEST CENTRAL ARKANSAS

CITY           SKY/WX    TMP DP  RH WIND       PRES   REMARKS
MENA           CLOUDY    45  23  42 SE3       30.24F
MOUNT IDA      CLOUDY    43  21  41 SE8       30.26F
$$

ARZ009-017-025-026-028-110200-
NORTHEAST ARKANSAS

CITY           SKY/WX    TMP DP  RH WIND       PRES   REMARKS
CORNING        CLOUDY    34  27  75 CALM      30.38S
JONESBORO      CLOUDY    33  25  72 CALM      30.37F
NEWPORT        CLOUDY    35  30  82 CALM      30.38F
WALNUT RIDGE   CLOUDY    36  27  69 E5        30.37F
BLYTHEVILLE    CLOUDY    38  21  50 SE6       30.37F
$$

ARZ022-023-033-042-044-110200-
CENTRAL ARKANSAS

CITY           SKY/WX    TMP DP  RH WIND       PRES   REMARKS
LITTLE ROCK    CLOUDY    40  27  59 SE9       30.35F
N LITTLE ROCK    N/A     39  28  65 SE6       30.38S
JACKSONVILLE   CLOUDY    39  25  57 E5        30.33F
SEARCY         CLOUDY    37  24  59 E7        30.37F
HOT SPRINGS    CLOUDY    44  23  43 SE6       30.32S
RUSSELLVILLE   CLOUDY    41  23  48 SE7       30.29F
CLINTON        CLOUDY    39  21  48 VRB6      30.32F
$$

ARZ036-110200-
EAST ARKANSAS

CITY           SKY/WX    TMP DP  RH WIND       PRES   REMARKS
WEST MEMPHIS   PTCLDY    34  20  56 S6        30.37F WCI  29
$$

ARZ050-053-066-070-073-110200-
SOUTHWEST ARKANSAS

CITY           SKY/WX    TMP DP  RH WIND       PRES   REMARKS
ARKADELPHIA    CLOUDY    43  29  57 SE5       30.34S
CAMDEN         CLOUDY    39  28  65 SE3       30.34S
TEXARKANA      CLOUDY    46  27  47 SE7       30.30F
EL DORADO      CLOUDY    38  32  79 CALM      30.34S
DE QUEEN       CLOUDY    44  28  53 E3        30.28S
$$

ARZ056-057-069-110200-
SOUTHEAST ARKANSAS

CITY           SKY/WX    TMP DP  RH WIND       PRES   REMARKS
PINE BLUFF     CLEAR     35  31  85 E7        30.36F WCI  29
STUTTGART      CLOUDY    39  25  56 E8        30.38S
MONTICELLO     CLEAR     39  26  59 SE3       30.36F

$$






USA.gov is the U.S. government's official web portal to all federal, state and local government web resources and services.